Weather History for KLJF - November, 2011

Change the Weather History Date:

Wednesday, November 9, 2011

  Actual Average Record
Temperature  
Mean Temperature 36 °F -  
Max Temperature 44 °F 42 °F 69 °F (1999)
Min Temperature 28 °F 26 °F 9 °F (1973)
Degree Days  
Heating Degree Days 29    
Moisture  
Dew Point 25 °F    
Average Humidity 66    
Maximum Humidity 93    
Minimum Humidity 42    
Precipitation  
Precipitation 0.00 in - - ()
Sea Level Pressure  
Sea Level Pressure 30.08 in    
Wind  
Wind Speed 6 mph (NW)    
Max Wind Speed 23 mph    
Max Gust Speed 32 mph    
Visibility 10 miles    
Events      
Averages and records for this station are not official NWS values.
T = Trace of Precipitation, MM = Missing Value Source: NWS Daily Summary

Daily Weather History Graph

Daily Weather History Graph

Search for Another Location

Airport or City:

Trip Planner

Search our weather history database for the weather conditions in past years. The results will help you decide how hot, cold, wet, or windy it might be!

Date:

Astronomy

Nov. 09, 2011 Rise Set
Actual Time 7:07 AM CST 4:55 PM CST
Civil Twilight 6:36 AM CST 5:27 PM CST
Nautical Twilight 6:00 AM CST 6:02 PM CST
Astronomical Twilight 5:26 AM CST 6:36 PM CST
Moon 4:07 PM CST (11/9) 6:03 AM CST (11/9)
Length of Visible Light 10h 50m
Length of Day
9h 48m
Waxing Gibbous, 99% of the Moon is Illuminated
Nov 9
Waxing Gibbous
Nov 10
Full
Nov 18
Last Quarter
Nov 25
New
Dec 2
First Quarter

Hourly Weather History & Observations

Time (CST) Temp. Windchill Dew Point Humidity Pressure Visibility Wind Dir Wind Speed Gust Speed Precip Events Conditions
12:13 AM 32.0 °F - 28.4 °F 87% 30.15 in 10.0 mi Calm Calm - N/A   Clear
12:33 AM 33.8 °F 30.8 °F 28.4 °F 81% 30.15 in 10.0 mi WNW 3.5 mph - N/A   Clear
12:53 AM 33.8 °F 30.8 °F 24.8 °F 70% 30.15 in 10.0 mi NW 3.5 mph - N/A   Clear
1:13 AM 33.8 °F 30.8 °F 24.8 °F 70% 30.15 in 10.0 mi WNW 3.5 mph - N/A   Clear
1:33 AM 33.8 °F - 24.8 °F 70% 30.15 in 10.0 mi Calm Calm - N/A   Clear
1:53 AM 33.8 °F - 24.8 °F 70% 30.14 in 10.0 mi Calm Calm - N/A   Clear
2:14 AM 33.8 °F 30.8 °F 24.8 °F 70% 30.13 in 10.0 mi NW 3.5 mph - N/A   Clear
2:33 AM 33.8 °F 29.6 °F 24.8 °F 70% 30.13 in 10.0 mi WNW 4.6 mph - N/A   Clear
2:53 AM 32.0 °F 28.7 °F 26.6 °F 80% 30.12 in 10.0 mi NW 3.5 mph - N/A   Clear
3:14 AM 32.0 °F - 26.6 °F 80% 30.11 in 10.0 mi Calm Calm - N/A   Clear
3:33 AM 30.2 °F - 26.6 °F 86% 30.11 in 10.0 mi Calm Calm - N/A   Clear
3:53 AM 32.0 °F - 26.6 °F 80% 30.10 in 10.0 mi Calm Calm - N/A   Clear
4:14 AM 32.0 °F - 26.6 °F 80% 30.09 in 10.0 mi Calm Calm - N/A   Clear
4:33 AM 32.0 °F - 26.6 °F 80% 30.09 in 10.0 mi Calm Calm - N/A   Clear
4:53 AM 32.0 °F - 26.6 °F 80% 30.09 in 10.0 mi Calm Calm - N/A   Clear
5:14 AM 30.2 °F - 24.8 °F 80% 30.09 in 10.0 mi Calm Calm - N/A   Clear
5:33 AM 32.0 °F - 26.6 °F 80% 30.08 in 10.0 mi Calm Calm - N/A   Clear
5:53 AM 30.2 °F - 24.8 °F 80% 30.08 in 10.0 mi Calm Calm - N/A   Clear
6:14 AM 30.2 °F 25.4 °F 26.6 °F 86% 30.08 in 10.0 mi WNW 4.6 mph - N/A   Clear
6:33 AM 30.2 °F 26.7 °F 28.4 °F 93% 30.08 in 10.0 mi West 3.5 mph - N/A   Clear
6:53 AM 28.4 °F - 26.6 °F 93% 30.08 in 10.0 mi Calm Calm - N/A   Clear
7:13 AM 30.2 °F - 24.8 °F 80% 30.09 in 10.0 mi Calm Calm - N/A   Clear
7:33 AM 28.4 °F - 24.8 °F 86% 30.09 in 10.0 mi Calm Calm - N/A   Clear
7:53 AM 30.2 °F - 24.8 °F 80% 30.09 in 10.0 mi Calm Calm - N/A   Clear
8:13 AM 30.2 °F 24.3 °F 24.8 °F 80% 30.08 in 10.0 mi WNW 5.8 mph - N/A   Clear
8:33 AM 32.0 °F 25.6 °F 26.6 °F 80% 30.07 in 10.0 mi WNW 6.9 mph - N/A   Clear
8:43 AM 32.0 °F 26.4 °F 26.6 °F 80% 30.06 in 10.0 mi NW 5.8 mph - N/A   Clear
9:01 AM 33.8 °F 26.4 °F 26.6 °F 75% 30.07 in 10.0 mi NW 9.2 mph - N/A   Clear
9:21 AM 33.8 °F 26.4 °F 26.6 °F 75% 30.07 in 10.0 mi NW 9.2 mph - N/A   Clear
9:41 AM 35.6 °F 29.2 °F 26.6 °F 70% 30.07 in 10.0 mi NNW 8.1 mph 17.3 mph N/A   Clear
10:14 AM 39.2 °F 32.5 °F 26.6 °F 61% 30.07 in 10.0 mi NW 10.4 mph - N/A   Clear
10:33 AM 42.8 °F 36.6 °F 26.6 °F 53% 30.08 in 10.0 mi NW 11.5 mph - N/A   Clear
10:53 AM 42.8 °F 37.0 °F 26.6 °F 53% 30.08 in 10.0 mi NW 10.4 mph - N/A   Clear
11:13 AM 42.8 °F 36.6 °F 24.8 °F 49% 30.08 in 10.0 mi NNW 11.5 mph 17.3 mph N/A   Clear
11:33 AM 44.6 °F 37.8 °F 24.8 °F 46% 30.07 in 10.0 mi NW 15.0 mph - N/A   Clear
12:13 PM 44.6 °F 38.4 °F 24.8 °F 46% 30.05 in 10.0 mi WNW 12.7 mph 21.9 mph N/A   Clear
12:33 PM 44.6 °F 36.9 °F 24.8 °F 46% 30.04 in 10.0 mi WNW 18.4 mph 24.2 mph N/A   Clear
12:53 PM 44.6 °F 37.4 °F 24.8 °F 46% 30.04 in 10.0 mi WNW 16.1 mph 21.9 mph N/A   Clear
1:13 PM 44.6 °F 37.4 °F 23.0 °F 43% 30.03 in 10.0 mi NW 16.1 mph 27.6 mph N/A   Clear
1:33 PM 42.8 °F 34.0 °F 24.8 °F 49% 30.03 in 10.0 mi WNW 20.7 mph 27.6 mph N/A   Clear
1:54 PM 42.8 °F 35.1 °F 24.8 °F 49% 30.03 in 10.0 mi NW 16.1 mph 28.8 mph N/A   Clear
2:33 PM 42.8 °F 34.0 °F 23.0 °F 46% 30.02 in 10.0 mi WNW 20.7 mph 27.6 mph N/A   Clear
2:53 PM 42.8 °F 34.0 °F 21.2 °F 42% 30.03 in 10.0 mi NW 20.7 mph 32.2 mph N/A   Clear
3:13 PM 41.0 °F 32.5 °F 21.2 °F 45% 30.03 in 10.0 mi NW 17.3 mph 31.1 mph N/A   Clear
3:33 PM 41.0 °F 31.4 °F 23.0 °F 49% 30.03 in 10.0 mi NW 21.9 mph 28.8 mph N/A   Clear
3:54 PM 39.2 °F 29.6 °F 21.2 °F 49% 30.03 in 10.0 mi NW 19.6 mph 27.6 mph N/A   Clear
4:13 PM 39.2 °F 30.5 °F 23.0 °F 52% 30.03 in 10.0 mi WNW 16.1 mph 24.2 mph N/A   Mostly Cloudy
4:33 PM 39.2 °F 28.7 °F 19.4 °F 45% 30.03 in 10.0 mi WNW 23.0 mph 32.2 mph N/A   Mostly Cloudy
4:53 PM 39.2 °F 30.2 °F 21.2 °F 49% 30.04 in 10.0 mi WNW 17.3 mph 26.5 mph N/A   Scattered Clouds
5:13 PM 39.2 °F 30.2 °F 21.2 °F 49% 30.04 in 10.0 mi WNW 17.3 mph 25.3 mph N/A   Clear
5:33 PM 37.4 °F 28.5 °F 21.2 °F 52% 30.04 in 10.0 mi WNW 15.0 mph 28.8 mph N/A   Scattered Clouds
5:53 PM 37.4 °F 29.3 °F 21.2 °F 52% 30.04 in 10.0 mi WNW 12.7 mph 23.0 mph N/A   Scattered Clouds
6:13 PM 37.4 °F 29.3 °F 21.2 °F 52% 30.04 in 10.0 mi WNW 12.7 mph 17.3 mph N/A   Scattered Clouds
6:33 PM 37.4 °F 30.3 °F 21.2 °F 52% 30.04 in 10.0 mi WNW 10.4 mph 20.7 mph N/A   Scattered Clouds
6:53 PM 37.4 °F 29.3 °F 21.2 °F 52% 30.04 in 10.0 mi WNW 12.7 mph - N/A   Mostly Cloudy
7:13 PM 37.4 °F 28.9 °F 21.2 °F 52% 30.03 in 10.0 mi WNW 13.8 mph 18.4 mph N/A   Overcast
7:33 PM 37.4 °F 27.8 °F 21.2 °F 52% 30.03 in 10.0 mi NW 17.3 mph 26.5 mph N/A   Overcast
7:53 PM 37.4 °F 27.5 °F 26.6 °F 65% 30.03 in 10.0 mi NW 18.4 mph 28.8 mph N/A   Overcast
8:13 PM 35.6 °F 25.9 °F 26.6 °F 70% 30.04 in 10.0 mi NW 16.1 mph 27.6 mph N/A   Overcast
8:33 PM 35.6 °F 24.2 °F 26.6 °F 70% 30.04 in 7.0 mi NW 21.9 mph 27.6 mph N/A   Overcast
8:53 PM 33.8 °F 22.5 °F 26.6 °F 75% 30.04 in 10.0 mi NW 19.6 mph 28.8 mph N/A   Overcast
9:13 PM 33.8 °F 24.3 °F 28.4 °F 81% 30.04 in 5.0 mi WNW 13.8 mph 26.5 mph N/A Rain Light Rain
9:33 PM 33.8 °F 23.9 °F 30.2 °F 87% 30.04 in 10.0 mi NW 15.0 mph 19.6 mph N/A   Light Drizzle
9:53 PM 33.8 °F 24.3 °F 30.2 °F 87% 30.03 in 10.0 mi NW 13.8 mph - N/A   Light Drizzle
10:13 PM 33.8 °F 23.9 °F 28.4 °F 81% 30.03 in 10.0 mi NW 15.0 mph 25.3 mph N/A   Light Drizzle
10:33 PM 33.8 °F 25.8 °F 28.4 °F 81% 30.03 in 10.0 mi WNW 10.4 mph 18.4 mph N/A   Overcast
10:53 PM 32.0 °F 22.5 °F 28.4 °F 87% 30.03 in 10.0 mi WNW 12.7 mph 18.4 mph N/A   Mostly Cloudy
11:13 PM 33.8 °F 24.3 °F 28.4 °F 81% 30.02 in 10.0 mi WNW 13.8 mph 21.9 mph N/A   Mostly Cloudy
11:33 PM 33.8 °F 22.8 °F 28.4 °F 81% 30.01 in 10.0 mi WNW 18.4 mph 25.3 mph N/A   Overcast
11:53 PM 33.8 °F 23.5 °F 28.4 °F 81% 30.01 in 10.0 mi WNW 16.1 mph 23.0 mph N/A   Overcast